THY9704 LYBE-LTAC

Flight info

Callsign THY9704
Flight time 1h 46m
Altitude 39000
Route TPL DCT NISVA L614 ADORU UL614 UMRUN
Aircraft A332/H-SDE3GHIJ2J3J5M1RVWXY/LB2D1

Departure

Time 2026-05-07 13:27
Airport Belgrade Nikola Tesla Airport (LYBE)

Arrival

Time 2026-05-07 15:14
Airport Esenboğa International Airport (LTAC)
Time Latitude Longitude Altitude Speed Heading
2026-05-07 13:04 44.82049 20.29390 315 ft 0 kts 302°
2026-05-07 13:12 44.82049 20.29391 315 ft 0 kts 302°
2026-05-07 13:14 44.82048 20.29391 315 ft 0 kts 302°
2026-05-07 13:19 44.82046 20.29397 315 ft 1 kts 304°
2026-05-07 13:19 44.82038 20.29413 315 ft 2 kts 302°
2026-05-07 13:19 44.82029 20.29435 314 ft 3 kts 302°
2026-05-07 13:19 44.82023 20.29450 314 ft 1 kts
2026-05-07 13:20 44.82018 20.29449 313 ft 1 kts 46°
2026-05-07 13:20 44.82012 20.29444 313 ft 2 kts
2026-05-07 13:20 44.82003 20.29442 312 ft 1 kts 22°
2026-05-07 13:22 44.82045 20.29468 317 ft 13 kts 27°
2026-05-07 13:22 44.82117 20.29523 317 ft 1 kts
2026-05-07 13:22 44.82129 20.29518 317 ft 3 kts 339°
2026-05-07 13:23 44.82152 20.29492 316 ft 5 kts 316°
2026-05-07 13:23 44.82180 20.29440 317 ft 8 kts 307°
2026-05-07 13:23 44.82222 20.29351 316 ft 13 kts 300°
2026-05-07 13:23 44.82274 20.29228 319 ft 16 kts 300°
2026-05-07 13:24 44.82323 20.29117 317 ft 14 kts 302°
2026-05-07 13:24 44.82378 20.28991 316 ft 16 kts 302°
2026-05-07 13:24 44.82414 20.28917 316 ft 1 kts 308°
2026-05-07 13:24 44.82423 20.28900 316 ft 4 kts 309°
2026-05-07 13:25 44.82461 20.28868 316 ft 9 kts 344°
2026-05-07 13:25 44.82535 20.28877 316 ft 13 kts 24°
2026-05-07 13:25 44.82600 20.28983 316 ft 16 kts 65°
2026-05-07 13:25 44.82625 20.29139 316 ft 17 kts 101°
2026-05-07 13:26 44.82612 20.29177 316 ft 1 kts 121°
2026-05-07 13:26 44.82574 20.29269 316 ft 38 kts 120°
2026-05-07 13:26 44.82305 20.29881 317 ft 107 kts 122°
2026-05-07 13:26 44.81814 20.30983 355 ft 153 kts 122°
2026-05-07 13:27 44.81238 20.32267 761 ft 157 kts 128°
2026-05-07 13:27 44.80287 20.33178 889 ft 179 kts 166°
2026-05-07 13:27 44.78980 20.33355 1018 ft 201 kts 180°
2026-05-07 13:27 44.77477 20.33474 1128 ft 227 kts 178°
2026-05-07 13:28 44.75893 20.33660 1856 ft 232 kts 177°
2026-05-07 13:28 44.74299 20.33899 2756 ft 231 kts 176°
2026-05-07 13:28 44.72679 20.34177 3493 ft 237 kts 175°
2026-05-07 13:28 44.71034 20.34481 4312 ft 241 kts 175°
2026-05-07 13:29 44.69358 20.34805 5110 ft 244 kts 175°
2026-05-07 13:29 44.67689 20.35139 5952 ft 245 kts 174°
2026-05-07 13:29 44.65984 20.35483 6733 ft 249 kts 175°
2026-05-07 13:29 44.64255 20.35837 7567 ft 249 kts 174°
2026-05-07 13:30 44.62559 20.36184 8306 ft 251 kts 174°
2026-05-07 13:30 44.60805 20.36545 9078 ft 252 kts 175°
2026-05-07 13:30 44.59085 20.36897 9814 ft 254 kts 174°
2026-05-07 13:30 44.57307 20.37266 10473 ft 257 kts 174°
2026-05-07 13:31 44.55552 20.37631 11082 ft 259 kts 174°
2026-05-07 13:31 44.53763 20.38001 11693 ft 261 kts 174°
2026-05-07 13:31 44.51953 20.38375 12314 ft 264 kts 175°
2026-05-07 13:31 44.50126 20.38750 12942 ft 267 kts 175°
2026-05-07 13:32 44.48282 20.39562 13101 ft 294 kts 154°
2026-05-07 13:32 44.46657 20.41439 13596 ft 306 kts 140°
2026-05-07 13:32 44.45116 20.43496 14212 ft 308 kts 142°
2026-05-07 13:32 44.43472 20.45422 14766 ft 310 kts 146°
2026-05-07 13:33 44.41746 20.47250 15361 ft 312 kts 148°
2026-05-07 13:33 44.39976 20.49040 15940 ft 315 kts 148°
2026-05-07 13:33 44.38187 20.50824 16521 ft 317 kts 148°
2026-05-07 13:33 44.36382 20.52619 17095 ft 320 kts 148°
2026-05-07 13:34 44.34557 20.54433 17651 ft 323 kts 148°
2026-05-07 13:34 44.30872 20.58097 18725 ft 329 kts 148°
2026-05-07 13:34 44.28999 20.59960 19210 ft 332 kts 148°
2026-05-07 13:35 44.27110 20.61837 19693 ft 335 kts 148°
2026-05-07 13:35 44.25199 20.63733 20195 ft 338 kts 149°
2026-05-07 13:35 44.23274 20.65639 20683 ft 341 kts 149°
2026-05-07 13:35 44.21333 20.67561 21166 ft 344 kts 149°
2026-05-07 13:36 44.19374 20.69499 21647 ft 347 kts 149°
2026-05-07 13:36 44.17395 20.71455 22116 ft 350 kts 149°
2026-05-07 13:36 44.15403 20.73422 22613 ft 353 kts 149°
2026-05-07 13:36 44.13403 20.75446 22960 ft 363 kts 143°
2026-05-07 13:37 44.11731 20.78203 23076 ft 384 kts 125°
2026-05-07 13:37 44.10318 20.81406 23626 ft 388 kts 126°
2026-05-07 13:37 44.08820 20.84520 24121 ft 388 kts 130°
2026-05-07 13:37 44.07191 20.87529 24544 ft 390 kts 133°
2026-05-07 13:38 44.05522 20.90489 25004 ft 390 kts 133°
2026-05-07 13:38 44.03846 20.93473 25449 ft 393 kts 132°
2026-05-07 13:38 44.02173 20.96484 25875 ft 395 kts 132°
2026-05-07 13:38 44.00493 20.99521 26282 ft 397 kts 132°
2026-05-07 13:39 43.98807 21.02564 26713 ft 399 kts 132°
2026-05-07 13:39 43.97135 21.05576 27127 ft 400 kts 132°
2026-05-07 13:39 43.95405 21.08685 27565 ft 402 kts 132°
2026-05-07 13:39 43.93717 21.11715 27968 ft 404 kts 132°
2026-05-07 13:40 43.91995 21.14804 28391 ft 406 kts 132°
2026-05-07 13:40 43.90263 21.17909 28794 ft 408 kts 132°
2026-05-07 13:40 43.88525 21.21021 29217 ft 410 kts 132°
2026-05-07 13:40 43.86779 21.24144 29642 ft 411 kts 132°
2026-05-07 13:41 43.85017 21.27290 30019 ft 414 kts 132°
2026-05-07 13:41 43.83247 21.30449 30376 ft 416 kts 132°
2026-05-07 13:41 43.81467 21.33623 30713 ft 417 kts 132°
2026-05-07 13:41 43.79688 21.36792 31049 ft 419 kts 133°
2026-05-07 13:42 43.77895 21.39980 31379 ft 420 kts 133°
2026-05-07 13:42 43.76093 21.43181 31703 ft 422 kts 133°
2026-05-07 13:42 43.74282 21.46396 32055 ft 424 kts 133°
2026-05-07 13:42 43.72467 21.49613 32385 ft 425 kts 133°
2026-05-07 13:43 43.70644 21.52842 32740 ft 426 kts 133°
2026-05-07 13:43 43.68836 21.56039 33042 ft 428 kts 133°
2026-05-07 13:43 43.66999 21.59286 33361 ft 430 kts 133°
2026-05-07 13:43 43.65157 21.62537 33674 ft 431 kts 133°
2026-05-07 13:44 43.63305 21.65800 33980 ft 433 kts 133°
2026-05-07 13:44 43.61441 21.69083 34240 ft 435 kts 133°
2026-05-07 13:44 43.59564 21.72383 34426 ft 439 kts 133°
2026-05-07 13:44 43.57673 21.75705 34645 ft 441 kts 132°
2026-05-07 13:45 43.55769 21.79047 34861 ft 444 kts 132°
2026-05-07 13:45 43.53855 21.82403 35050 ft 447 kts 132°
2026-05-07 13:45 43.51922 21.85786 35254 ft 449 kts 132°
2026-05-07 13:45 43.49981 21.89182 35444 ft 452 kts 132°
2026-05-07 13:46 43.48032 21.92587 35635 ft 454 kts 132°
2026-05-07 13:46 43.46073 21.96005 35837 ft 456 kts 132°
2026-05-07 13:46 43.44125 21.99400 35999 ft 459 kts 132°
2026-05-07 13:46 43.42142 22.02852 36189 ft 460 kts 132°
2026-05-07 13:47 43.40149 22.06316 36389 ft 462 kts 132°
2026-05-07 13:47 43.38154 22.09781 36552 ft 464 kts 132°
2026-05-07 13:47 43.36142 22.13271 36751 ft 466 kts 132°
2026-05-07 13:47 43.34126 22.16766 36989 ft 466 kts 132°
2026-05-07 13:48 43.32112 22.20251 37244 ft 466 kts 132°
2026-05-07 13:48 43.30089 22.23748 37492 ft 467 kts 132°
2026-05-07 13:48 43.28069 22.27235 37741 ft 467 kts 132°
2026-05-07 13:48 43.26046 22.30722 38005 ft 467 kts 132°
2026-05-07 13:49 43.24023 22.34208 38241 ft 467 kts 132°
2026-05-07 13:49 43.21998 22.37691 38509 ft 466 kts 132°
2026-05-07 13:49 43.19971 22.41173 38745 ft 466 kts 132°
2026-05-07 13:49 43.17949 22.44643 38922 ft 467 kts 132°
2026-05-07 13:50 43.15919 22.48123 39070 ft 467 kts 132°
2026-05-07 13:50 43.13887 22.51602 39197 ft 467 kts 132°
2026-05-07 13:50 43.11854 22.55079 39318 ft 468 kts 132°
2026-05-07 13:50 43.09847 22.58506 39454 ft 468 kts 132°
2026-05-07 13:51 43.07784 22.62026 39553 ft 469 kts 132°
2026-05-07 13:51 43.03726 22.68935 39771 ft 470 kts 131°
2026-05-07 13:52 42.99616 22.75920 39972 ft 470 kts 131°
2026-05-07 13:52 42.97566 22.79396 40127 ft 471 kts 131°
2026-05-07 13:52 42.95680 22.83077 40222 ft 475 kts 117°
2026-05-07 13:52 42.94529 22.87317 40297 ft 479 kts 104°
2026-05-07 13:53 42.93703 22.91720 40377 ft 479 kts 108°
2026-05-07 13:53 42.91315 23.00171 40532 ft 477 kts 116°
2026-05-07 13:54 42.88738 23.08475 40728 ft 478 kts 114°
2026-05-07 13:54 42.86265 23.16888 40915 ft 479 kts 114°
2026-05-07 13:55 42.83743 23.25301 41068 ft 479 kts 114°
2026-05-07 13:55 42.81216 23.33709 41097 ft 480 kts 114°
2026-05-07 13:56 42.78679 23.42135 41101 ft 480 kts 114°
2026-05-07 13:56 42.76137 23.50546 41101 ft 481 kts 114°
2026-05-07 13:57 42.73607 23.58889 41099 ft 480 kts 114°
2026-05-07 13:57 42.71057 23.67274 41094 ft 479 kts 114°
2026-05-07 13:58 42.68503 23.75644 41100 ft 479 kts 114°
2026-05-07 13:58 42.65952 23.84035 41087 ft 481 kts 112°
2026-05-07 13:59 42.63644 23.92566 41081 ft 482 kts 111°
2026-05-07 13:59 42.61317 24.01104 41083 ft 482 kts 112°
2026-05-07 14:00 42.58954 24.09634 41079 ft 482 kts 112°
2026-05-07 14:00 42.56595 24.18126 41093 ft 482 kts 112°
2026-05-07 14:01 42.54226 24.26647 41096 ft 482 kts 112°
2026-05-07 14:01 42.51864 24.35117 41084 ft 482 kts 112°
2026-05-07 14:02 42.49489 24.43603 41083 ft 482 kts 112°
2026-05-07 14:02 42.47106 24.52089 41073 ft 482 kts 112°
2026-05-07 14:03 42.44712 24.60583 41072 ft 483 kts 112°
2026-05-07 14:03 42.42718 24.67638 41061 ft 483 kts 112°
2026-05-07 14:04 42.40312 24.76124 41066 ft 483 kts 112°
2026-05-07 14:04 42.37901 24.84598 41062 ft 483 kts 112°
2026-05-07 14:05 42.35487 24.93055 41056 ft 482 kts 112°
2026-05-07 14:05 42.33065 25.01512 41050 ft 481 kts 112°
2026-05-07 14:06 42.30642 25.09942 41048 ft 480 kts 112°
2026-05-07 14:06 42.28217 25.18352 41050 ft 480 kts 112°
2026-05-07 14:07 42.25790 25.26744 41048 ft 480 kts 112°
2026-05-07 14:07 42.23368 25.35089 41042 ft 480 kts 112°
2026-05-07 14:08 42.20926 25.43473 41043 ft 480 kts 112°
2026-05-07 14:08 42.18482 25.51839 41045 ft 480 kts 112°
2026-05-07 14:09 42.15995 25.60188 41044 ft 479 kts 112°
2026-05-07 14:09 42.13547 25.68539 41050 ft 479 kts 112°
2026-05-07 14:10 42.11102 25.76879 41047 ft 479 kts 112°
2026-05-07 14:10 42.08639 25.85226 41041 ft 479 kts 112°
2026-05-07 14:11 42.06174 25.93560 41049 ft 479 kts 112°
2026-05-07 14:11 42.03704 26.01883 41046 ft 479 kts 112°
2026-05-07 14:12 42.01241 26.10158 41053 ft 480 kts 112°
2026-05-07 14:12 41.98755 26.18482 41052 ft 480 kts 112°
2026-05-07 14:13 41.96258 26.26816 41055 ft 481 kts 112°
2026-05-07 14:13 41.93753 26.35152 41053 ft 481 kts 112°
2026-05-07 14:14 41.91242 26.43477 41053 ft 480 kts 112°
2026-05-07 14:14 41.88741 26.51748 41059 ft 481 kts 112°
2026-05-07 14:15 41.86080 26.59960 41063 ft 479 kts 125°
2026-05-07 14:15 41.81949 26.66951 41056 ft 479 kts 129°
2026-05-07 14:16 41.78128 26.74302 41061 ft 481 kts 124°
2026-05-07 14:16 41.74364 26.81724 41064 ft 482 kts 126°
2026-05-07 14:17 41.70522 26.89085 41061 ft 482 kts 126°
2026-05-07 14:17 41.66697 26.96463 41064 ft 482 kts 126°
2026-05-07 14:18 41.62869 27.03820 41071 ft 482 kts 126°
2026-05-07 14:18 41.59026 27.11185 41065 ft 482 kts 126°
2026-05-07 14:19 41.55191 27.18518 41066 ft 483 kts 126°
2026-05-07 14:19 41.51360 27.25828 41065 ft 484 kts 126°
2026-05-07 14:20 41.47487 27.33197 41066 ft 484 kts 126°
2026-05-07 14:20 41.43573 27.40505 41072 ft 485 kts 127°
2026-05-07 14:21 41.39659 27.47830 41072 ft 485 kts 126°
2026-05-07 14:21 41.35765 27.55125 41071 ft 486 kts 126°
2026-05-07 14:22 41.31839 27.62448 41084 ft 486 kts 126°
2026-05-07 14:22 41.27913 27.69758 41093 ft 487 kts 126°
2026-05-07 14:23 41.23961 27.77098 41098 ft 487 kts 126°
2026-05-07 14:23 41.20006 27.84425 41104 ft 488 kts 126°
2026-05-07 14:24 41.16047 27.91742 41101 ft 488 kts 126°
2026-05-07 14:24 41.12123 27.99112 41103 ft 489 kts 125°
2026-05-07 14:25 41.08279 28.06555 41100 ft 490 kts 125°
2026-05-07 14:25 41.04396 28.13973 41101 ft 490 kts 125°
2026-05-07 14:26 41.00502 28.21402 41100 ft 490 kts 125°
2026-05-07 14:26 40.96636 28.28767 41101 ft 491 kts 125°
2026-05-07 14:27 40.92731 28.36184 41098 ft 491 kts 125°
2026-05-07 14:27 40.88814 28.43607 41096 ft 492 kts 125°
2026-05-07 14:28 40.84891 28.51025 41099 ft 493 kts 125°
2026-05-07 14:28 40.80959 28.58440 41095 ft 493 kts 125°
2026-05-07 14:29 40.77016 28.65858 41101 ft 493 kts 125°
2026-05-07 14:29 40.73070 28.73265 41103 ft 494 kts 125°
2026-05-07 14:30 40.69139 28.80625 41101 ft 494 kts 125°
2026-05-07 14:30 40.65174 28.88033 41097 ft 494 kts 125°
2026-05-07 14:31 40.61202 28.95436 41097 ft 495 kts 125°
2026-05-07 14:31 40.57218 29.02842 41096 ft 496 kts 125°
2026-05-07 14:32 40.53228 29.10244 41094 ft 496 kts 125°
2026-05-07 14:32 40.49227 29.17645 41096 ft 496 kts 125°
2026-05-07 14:33 40.45606 29.25307 41102 ft 493 kts 106°
2026-05-07 14:33 40.44844 29.29661 41094 ft 488 kts 89°
2026-05-07 14:33 40.44998 29.34056 41103 ft 480 kts 73°
2026-05-07 14:34 40.45682 29.42767 41107 ft 488 kts 96°
2026-05-07 14:34 40.44473 29.51530 41097 ft 491 kts 96°
2026-05-07 14:35 40.43599 29.60423 41093 ft 491 kts 94°
2026-05-07 14:35 40.42734 29.69311 41101 ft 491 kts 95°
2026-05-07 14:36 40.41820 29.78171 41103 ft 490 kts 95°
2026-05-07 14:36 40.41668 29.79683 41104 ft 489 kts 95°
2026-05-07 14:39 40.40705 29.89218 41107 ft 488 kts 95°
2026-05-07 14:39 40.39797 29.98045 41113 ft 488 kts 95°
2026-05-07 14:40 40.38874 30.06870 41113 ft 488 kts 95°
2026-05-07 14:40 40.37964 30.15637 41112 ft 488 kts 95°
2026-05-07 14:41 40.37040 30.24442 41108 ft 487 kts 95°
2026-05-07 14:41 40.36111 30.33228 41110 ft 486 kts 95°
2026-05-07 14:42 40.35176 30.42017 41109 ft 486 kts 95°
2026-05-07 14:42 40.34233 30.50807 41110 ft 487 kts 95°
2026-05-07 14:43 40.33286 30.59571 41116 ft 487 kts 95°
2026-05-07 14:43 40.32332 30.68338 41124 ft 487 kts 95°
2026-05-07 14:44 40.31368 30.77127 41054 ft 486 kts 95°
2026-05-07 14:44 40.30877 30.81492 40910 ft 482 kts 95°
2026-05-07 14:44 40.30549 30.84367 40685 ft 481 kts 95°
2026-05-07 14:45 40.30061 30.88707 40179 ft 481 kts 95°
2026-05-07 14:45 40.29581 30.93056 39643 ft 482 kts 95°
2026-05-07 14:45 40.28945 30.98804 39028 ft 481 kts 94°
2026-05-07 14:45 40.28618 31.01730 38672 ft 482 kts 94°
2026-05-07 14:46 40.28132 31.06066 38072 ft 482 kts 94°
2026-05-07 14:46 40.27642 31.10416 37369 ft 484 kts 94°
2026-05-07 14:46 40.27148 31.14787 36720 ft 485 kts 94°
2026-05-07 14:46 40.26652 31.19169 36065 ft 487 kts 94°
2026-05-07 14:47 40.26152 31.23566 35436 ft 489 kts 94°
2026-05-07 14:47 40.25648 31.27985 34757 ft 491 kts 94°
2026-05-07 14:47 40.25140 31.32416 34169 ft 492 kts 94°
2026-05-07 14:47 40.24639 31.36776 33540 ft 492 kts 94°
2026-05-07 14:48 40.24130 31.41188 33123 ft 487 kts 94°
2026-05-07 14:48 40.23619 31.45558 32656 ft 484 kts 94°
2026-05-07 14:48 40.23102 31.49892 32176 ft 481 kts 94°
2026-05-07 14:48 40.22593 31.54196 31710 ft 477 kts 94°
2026-05-07 14:49 40.22094 31.58480 31240 ft 474 kts 94°
2026-05-07 14:49 40.21596 31.62734 30809 ft 471 kts 94°
2026-05-07 14:49 40.21099 31.66960 30301 ft 469 kts 94°
2026-05-07 14:49 40.20604 31.71153 29907 ft 464 kts 94°
2026-05-07 14:50 40.20109 31.75324 29392 ft 462 kts 94°
2026-05-07 14:50 40.19617 31.79455 28941 ft 458 kts 94°
2026-05-07 14:50 40.19128 31.83556 28495 ft 454 kts 94°
2026-05-07 14:50 40.18641 31.87627 28028 ft 451 kts 94°
2026-05-07 14:51 40.18405 31.91668 27558 ft 439 kts 79°
2026-05-07 14:51 40.19026 31.95478 27069 ft 422 kts 60°
2026-05-07 14:51 40.20453 31.98725 26604 ft 405 kts 42°
2026-05-07 14:51 40.22418 32.01271 26193 ft 396 kts 38°
2026-05-07 14:52 40.24168 32.04100 25730 ft 405 kts 53°
2026-05-07 14:52 40.25434 32.07358 25337 ft 408 kts 61°
2026-05-07 14:52 40.26501 32.10805 24927 ft 408 kts 63°
2026-05-07 14:52 40.27571 32.14238 24522 ft 405 kts 62°
2026-05-07 14:53 40.28690 32.17622 24168 ft 401 kts 60°
2026-05-07 14:53 40.29824 32.20960 23761 ft 401 kts 60°
2026-05-07 14:53 40.30951 32.24279 23375 ft 397 kts 61°
2026-05-07 14:53 40.32063 32.27583 22977 ft 395 kts 61°
2026-05-07 14:54 40.33166 32.30874 22599 ft 393 kts 62°
2026-05-07 14:54 40.34261 32.34146 22220 ft 391 kts 62°
2026-05-07 14:54 40.35347 32.37393 21854 ft 389 kts 62°
2026-05-07 14:54 40.36428 32.40627 21482 ft 386 kts 63°
2026-05-07 14:55 40.37505 32.43851 21071 ft 385 kts 63°
2026-05-07 14:55 40.38550 32.47063 20774 ft 382 kts 68°
2026-05-07 14:55 40.39013 32.50493 20357 ft 387 kts 89°
2026-05-07 14:55 40.38556 32.53981 20003 ft 388 kts 110°
2026-05-07 14:56 40.37246 32.57050 19618 ft 388 kts 130°
2026-05-07 14:56 40.35247 32.59336 19321 ft 384 kts 151°
2026-05-07 14:56 40.32790 32.60629 18994 ft 379 kts 169°
2026-05-07 14:56 40.30290 32.61584 18888 ft 370 kts 155°
2026-05-07 14:57 40.28205 32.63451 18825 ft 360 kts 133°
2026-05-07 14:57 40.26671 32.65974 18751 ft 350 kts 123°
2026-05-07 14:57 40.25348 32.68602 18682 ft 341 kts 123°
2026-05-07 14:57 40.24035 32.71145 18611 ft 333 kts 124°
2026-05-07 14:58 40.22714 32.73587 18532 ft 324 kts 126°
2026-05-07 14:58 40.21409 32.75950 18453 ft 317 kts 126°
2026-05-07 14:58 40.20132 32.78253 18365 ft 310 kts 126°
2026-05-07 14:58 40.18852 32.80563 17902 ft 316 kts 126°
2026-05-07 14:59 40.17557 32.82903 17429 ft 322 kts 126°
2026-05-07 14:59 40.16580 32.85566 16970 ft 335 kts 101°
2026-05-07 14:59 40.16454 32.88686 16517 ft 354 kts 79°
2026-05-07 14:59 40.17245 32.91759 16064 ft 360 kts 57°
2026-05-07 15:00 40.18828 32.94246 15616 ft 357 kts 36°
2026-05-07 15:00 40.20983 32.95805 15165 ft 353 kts 14°
2026-05-07 15:00 40.23360 32.96221 14739 ft 350 kts 354°
2026-05-07 15:00 40.25778 32.95887 14309 ft 349 kts 349°
2026-05-07 15:01 40.28185 32.95419 13874 ft 351 kts 352°
2026-05-07 15:01 40.30627 32.95554 13400 ft 355 kts 13°
2026-05-07 15:01 40.32931 32.96716 12926 ft 357 kts 21°
2026-05-07 15:01 40.35236 32.97935 12459 ft 357 kts 19°
2026-05-07 15:02 40.37527 32.99099 12265 ft 349 kts 19°
2026-05-07 15:02 40.39765 33.00228 12165 ft 339 kts 19°
2026-05-07 15:02 40.41937 33.01322 12039 ft 331 kts 19°
2026-05-07 15:02 40.44077 33.02402 11704 ft 329 kts 19°
2026-05-07 15:03 40.46209 33.03479 11366 ft 327 kts 19°
2026-05-07 15:03 40.48329 33.04548 11060 ft 325 kts 19°
2026-05-07 15:03 40.50429 33.05610 10843 ft 320 kts 19°
2026-05-07 15:03 40.52478 33.06651 10767 ft 312 kts 19°
2026-05-07 15:04 40.54471 33.07681 10675 ft 304 kts 23°
2026-05-07 15:04 40.56140 33.09318 10612 ft 300 kts 50°
2026-05-07 15:04 40.57120 33.11702 10435 ft 298 kts 75°
2026-05-07 15:04 40.57242 33.14415 10155 ft 300 kts 102°
2026-05-07 15:05 40.56628 33.17014 10020 ft 296 kts 113°
2026-05-07 15:05 40.55582 33.19304 9902 ft 290 kts 135°
2026-05-07 15:05 40.53971 33.20807 9804 ft 281 kts 161°
2026-05-07 15:05 40.52111 33.21287 9718 ft 272 kts 180°
2026-05-07 15:06 40.50220 33.21340 9621 ft 266 kts 182°
2026-05-07 15:06 40.48414 33.21315 9544 ft 260 kts 183°
2026-05-07 15:06 40.46628 33.21271 9471 ft 254 kts 183°
2026-05-07 15:06 40.44879 33.21220 9378 ft 248 kts 185°
2026-05-07 15:07 40.43183 33.21069 9304 ft 242 kts 187°
2026-05-07 15:07 40.41532 33.20753 9133 ft 238 kts 196°
2026-05-07 15:07 40.39930 33.20205 8899 ft 239 kts 198°
2026-05-07 15:07 40.38288 33.19594 8453 ft 251 kts 198°
2026-05-07 15:08 40.36577 33.18947 8009 ft 262 kts 198°
2026-05-07 15:08 40.34791 33.18273 7549 ft 271 kts 198°
2026-05-07 15:08 40.32991 33.17595 7107 ft 267 kts 198°
2026-05-07 15:08 40.31218 33.16915 6667 ft 263 kts 202°
2026-05-07 15:09 40.29615 33.15834 6242 ft 257 kts 218°
2026-05-07 15:09 40.28233 33.14468 6058 ft 238 kts 220°
2026-05-07 15:09 40.26964 33.13204 6058 ft 220 kts 218°
2026-05-07 15:09 40.25785 33.12068 5945 ft 203 kts 219°
2026-05-07 15:10 40.24681 33.11011 5703 ft 189 kts 218°
2026-05-07 15:10 40.23667 33.10037 5495 ft 174 kts 218°
2026-05-07 15:10 40.22745 33.09158 5277 ft 162 kts 219°
2026-05-07 15:10 40.21841 33.08291 5040 ft 156 kts 219°
2026-05-07 15:11 40.20982 33.07468 4851 ft 154 kts 219°
2026-05-07 15:11 40.20109 33.06630 4612 ft 153 kts 219°
2026-05-07 15:11 40.19244 33.05799 4392 ft 156 kts 221°
2026-05-07 15:11 40.18379 33.04971 4192 ft 160 kts 221°
2026-05-07 15:12 40.17479 33.04112 3960 ft 154 kts 220°
2026-05-07 15:12 40.16612 33.03285 3784 ft 156 kts 221°
2026-05-07 15:12 40.15752 33.02463 3545 ft 147 kts 221°
2026-05-07 15:12 40.14908 33.01653 3361 ft 151 kts 220°
2026-05-07 15:13 40.14083 33.00872 3190 ft 146 kts 216°
2026-05-07 15:13 40.13295 33.00121 3143 ft 123 kts 216°
2026-05-07 15:13 40.12696 32.99547 3144 ft 91 kts 216°
2026-05-07 15:13 40.12257 32.99133 3141 ft 68 kts 214°
2026-05-07 15:14 40.11960 32.98871 3143 ft 27 kts 194°
2026-05-07 15:14 40.11887 32.98908 3143 ft 7 kts 135°
2026-05-07 15:14 40.11848 32.98961 3142 ft 9 kts 129°
2026-05-07 15:14 40.11802 32.99038 3142 ft 12 kts 128°
2026-05-07 15:15 40.11733 32.99106 3142 ft 14 kts 176°
2026-05-07 15:15 40.11650 32.99044 3142 ft 15 kts 230°
2026-05-07 15:15 40.11579 32.98936 3142 ft 17 kts 227°
2026-05-07 15:15 40.11490 32.98841 3142 ft 13 kts 207°
2026-05-07 15:16 40.11428 32.98874 3142 ft 4 kts 128°